WW9M Weather Reports


time (UTC)temp
F
wind
direction
speed
knots
gust
knots
rain 1hr
in
rain 24hr
in
rain mn
in
humidity
%
barometer
mb
20260504012504 59 47 0.0 2.6 0.00 0.00 0.00 57 1011.4
20260504012005 59 91 0.9 2.6 0.00 0.00 0.00 57 1011.4
20260504011504 59 59 0.9 2.6 0.00 0.00 0.00 57 1011.4
20260504011004 59 174 0.9 4.3 0.00 0.00 0.00 58 1011.3
20260504010502 59 40 0.9 4.3 0.00 0.00 0.00 57 1011.3
20260504010005 59 226 0.9 3.5 0.00 0.00 0.00 58 1011.1
20260504005504 59 208 0.9 2.6 0.00 0.00 0.00 60 1011.0
20260504005005 59 94 0.9 2.6 0.00 0.00 0.00 59 1011.1
20260504004505 59 214 0.0 1.7 0.00 0.00 0.00 57 1011.8
20260504004004 60 123 0.9 4.3 0.00 0.00 0.00 58 1011.8
20260504003504 60 139 0.9 4.3 0.00 0.00 0.00 57 1011.8
20260504003000 59 82 0.0 3.5 0.00 0.00 0.00 56 1011.6
20260504002504 59 42 0.0 4.3 0.00 0.00 0.00 57 1011.6
20260504002004 60 108 0.0 4.3 0.00 0.00 0.00 57 1011.3
20260504001000 60 64 0.0 0.9 0.00 0.00 0.00 56 1011.4
20260504000501 60 61 0.0 2.6 0.00 0.00 0.00 55 1011.9
20260504000005 60 150 0.0 3.5 0.00 0.00 0.00 55 1012.2
20260503235504 61 41 0.0 2.6 0.00 0.00 0.00 55 1012.2
20260503235004 61 228 0.0 1.7 0.00 0.00 0.00 52 1012.5
20260503234504 61 70 0.0 2.6 0.00 0.00 0.00 53 1012.5
20260503234005 61 155 0.0 2.6 0.00 0.00 0.00 52 1012.2
20260503233504 61 51 0.0 1.7 0.00 0.00 0.00 52 1012.0
20260503232505 61 264 0.9 6.1 0.00 0.00 0.00 51 1012.1
20260503232004 61 64 0.9 6.1 0.00 0.00 0.00 52 1012.0
20260503231504 61 125 0.9 2.6 0.00 0.00 0.00 52 1012.0
20260503231004 61 135 0.9 3.5 0.00 0.00 0.00 50 1012.1
20260503230504 61 77 0.9 4.3 0.00 0.00 0.00 50 1012.2
20260503230004 61 86 0.9 4.3 0.00 0.00 0.00 49 1012.5
20260503225500 61 98 0.9 5.2 0.00 0.00 0.00 49 1012.5
20260503225000 61 63 0.9 5.2 0.00 0.00 0.00 49 1012.2
20260503224005 61 215 0.9 3.5 0.00 0.00 0.00 50 1012.0
20260503223001 61 80 0.9 5.2 0.00 0.00 0.00 51 1011.9
20260503222502 61 93 0.9 3.5 0.00 0.00 0.00 50 1012.2
20260503222002 60 105 0.9 2.6 0.00 0.00 0.00 51 1012.6
20260503221000 60 45 0.9 4.3 0.00 0.00 0.00 50 1012.7
20260503220504 60 129 0.9 2.6 0.00 0.00 0.00 52 1012.6
20260503220005 60 162 0.9 3.5 0.00 0.00 0.00 52 1012.5
20260503215003 61 198 0.9 4.3 0.00 0.00 0.00 52 1012.6
20260503214504 62 195 0.9 4.3 0.00 0.00 0.00 49 1012.7
20260503213500 62 285 1.7 7.0 0.00 0.00 0.00 45 1013.0
20260503213002 62 96 1.7 10.4 0.00 0.00 0.00 44 1013.0
20260503212504 63 115 0.9 10.4 0.00 0.00 0.00 45 1013.1
20260503212001 63 50 0.9 5.2 0.00 0.00 0.00 45 1013.3
20260503211502 63 18 0.9 5.2 0.00 0.00 0.00 44 1013.5
20260503210502 63 243 0.9 4.3 0.00 0.00 0.00 45 1013.8
20260503210006 63 41 0.9 4.3 0.00 0.00 0.00 44 1014.0
20260503205504 64 231 1.7 5.2 0.00 0.00 0.00 44 1014.1
20260503205004 64 64 1.7 5.2 0.00 0.00 0.00 41 1014.1
20260503204505 65 93 1.7 5.2 0.00 0.00 0.00 41 1014.2
20260503204000 65 84 1.7 7.0 0.00 0.00 0.00 41 1014.3
20260503203500 66 246 1.7 7.0 0.00 0.00 0.00 41 1014.3
20260503203001 66 43 1.7 7.8 0.00 0.00 0.00 40 1014.1
20260503202500 67 121 1.7 7.8 0.00 0.00 0.00 40 1014.2
20260503202000 67 28 1.7 6.1 0.00 0.00 0.00 40 1014.3
20260503201500 66 345 1.7 6.1 0.00 0.00 0.00 42 1014.3
20260503201000 66 221 1.7 6.1 0.00 0.00 0.00 40 1014.3
20260503200502 65 325 1.7 8.7 0.00 0.00 0.00 43 1014.6
20260503200005 65 254 2.6 8.7 0.00 0.00 0.00 42 1014.5
20260503195500 66 66 1.7 6.1 0.00 0.00 0.00 40 1014.6
20260503195002 67 23 1.7 6.1 0.00 0.00 0.00 42 1014.8
20260503194504 66 134 1.7 6.1 0.00 0.00 0.00 44 1014.7
20260503194000 66 10 1.7 5.2 0.00 0.00 0.00 44 1014.8
20260503193502 65 262 1.7 7.0 0.00 0.00 0.00 42 1014.8
20260503193005 66 71 2.6 7.0 0.00 0.00 0.00 41 1014.9
20260503192505 66 41 1.7 6.1 0.00 0.00 0.00 41 1014.9
20260503192004 66 30 1.7 6.1 0.00 0.00 0.00 40 1015.0
20260503191504 66 191 1.7 6.1 0.00 0.00 0.00 40 1015.3
20260503191000 66 94 1.7 7.0 0.00 0.00 0.00 39 1015.4
20260503190500 66 63 1.7 7.0 0.00 0.00 0.00 40 1015.2
20260503190000 65 65 1.7 7.8 0.00 0.00 0.00 42 1015.4
20260503185500 65 86 1.7 7.8 0.00 0.00 0.00 40 1015.6
20260503185003 65 30 1.7 7.0 0.00 0.00 0.00 40 1015.6
20260503184005 65 211 1.7 7.0 0.00 0.00 0.00 40 1015.9
20260503183504 65 34 1.7 6.1 0.00 0.00 0.00 39 1016.1
20260503183000 65 45 1.7 5.2 0.00 0.00 0.00 38 1016.3
20260503182502 65 60 1.7 5.2 0.00 0.00 0.00 40 1016.5
20260503181959 64 129 1.7 6.1 0.00 0.00 0.00 40 1016.4
20260503181504 64 268 1.7 5.2 0.00 0.00 0.00 38 1016.5
20260503180502 64 84 1.7 7.0 0.00 0.00 0.00 41 1016.7
20260503180001 63 44 1.7 7.0 0.00 0.00 0.00 41 1016.8
20260503175504 63 60 1.7 4.3 0.00 0.00 0.00 37 1017.0
20260503175002 63 185 1.7 7.0 0.00 0.00 0.00 40 1017.0
20260503174504 63 37 1.7 6.1 0.00 0.00 0.00 39 1017.0
20260503173505 63 58 1.7 6.1 0.00 0.00 0.00 39 1017.2
20260503173004 63 359 1.7 5.2 0.00 0.00 0.00 42 1017.2
20260503172503 63 41 1.7 5.2 0.00 0.00 0.00 37 1017.3
20260503171502 63 64 1.7 5.2 0.00 0.00 0.00 39 1017.4
20260503171000 63 139 1.7 6.1 0.00 0.00 0.00 37 1017.6
20260503170500 63 148 1.7 6.1 0.00 0.00 0.00 42 1017.7
20260503151003 59 55 0.9 3.5 0.00 0.00 0.00 43 1019.1
20260503150500 58 205 0.9 3.5 0.00 0.00 0.00 44 1019.1
20260503131004 0 0.0 0.0 0.00 0.00 0.00 1019.5
20260503130504 0 0.0 0.0 0.00 0.00 0.00 1019.5
20260503110500 0 243 0.0 0.0 0.00 0.00 0.00 86 1018.8
20260503090502 38 252 0.0 0.0 0.00 0.00 0.00 87 1018.4
20260503081504 38 243 0.0 0.9 0.00 0.00 0.00 86 1018.4
20260503080959 38 242 0.0 0.9 0.00 0.00 0.00 85 1018.3
20260503080500 39 243 0.0 0.9 0.00 0.00 0.00 85 1018.4
20260503072004 39 256 0.0 0.9 0.00 0.00 0.00 83 1018.4
20260503071504 40 266 0.0 0.9 0.00 0.00 0.00 84 1018.4
20260503071004 40 266 0.0 0.9 0.00 0.00 0.00 84 1018.4
20260503055004 40 246 0.0 0.9 0.00 0.00 0.00 85 1018.9
20260503054503 40 246 0.0 0.9 0.00 0.00 0.00 85 1018.9
20260503054000 40 246 0.0 0.0 0.00 0.00 0.00 85 1018.9
20260503053503 40 246 0.0 0.0 0.00 0.00 0.00 86 1018.9
20260503052000 40 246 0.0 0.0 0.00 0.00 0.00 86 1019.0
20260503051504 39 246 0.0 0.0 0.00 0.00 0.00 85 1019.0
20260503051000 39 246 0.0 0.0 0.00 0.00 0.00 84 1019.1
20260503050504 39 246 0.0 0.0 0.00 0.00 0.00 84 1019.1
20260503045500 39 246 0.0 0.0 0.00 0.00 0.00 83 1019.1
20260503045000 39 246 0.0 0.0 0.00 0.00 0.00 82 1019.1
20260503044500 39 246 0.0 0.0 0.00 0.00 0.00 81 1019.0
20260503044002 40 246 0.0 0.0 0.00 0.00 0.00 80 1019.0
20260503043502 40 246 0.0 0.0 0.00 0.00 0.00 79 1018.9
20260503043000 40 246 0.0 0.0 0.00 0.00 0.00 79 1018.9
20260503042501 40 246 0.0 0.0 0.00 0.00 0.00 79 1018.9
20260503042000 40 246 0.0 0.0 0.00 0.00 0.00 77 1018.9
20260503041500 40 246 0.0 0.0 0.00 0.00 0.00 77 1018.8
20260503041000 40 246 0.0 0.0 0.00 0.00 0.00 77 1018.8
20260503035502 41 246 0.0 0.0 0.00 0.00 0.00 78 1018.9
20260503034504 41 246 0.0 0.0 0.00 0.00 0.00 75 1018.9
20260503034000 41 246 0.0 0.0 0.00 0.00 0.00 74 1018.9
20260503033501 41 246 0.0 0.0 0.00 0.00 0.00 72 1019.0
20260503033005 41 246 0.0 0.0 0.00 0.00 0.00 70 1018.9
20260503032502 42 246 0.0 0.0 0.00 0.00 0.00 69 1019.0
20260503032002 42 246 0.0 0.0 0.00 0.00 0.00 69 1019.0
20260503031500 42 246 0.0 0.0 0.00 0.00 0.00 69 1019.0
20260503031000 42 246 0.0 0.0 0.00 0.00 0.00 69 1019.0
20260503030005 42 246 0.0 0.0 0.00 0.00 0.00 68 1019.0
20260503025504 42 246 0.0 0.0 0.00 0.00 0.00 69 1019.0
20260503025004 42 246 0.0 0.0 0.00 0.00 0.00 68 1019.0
20260503024505 42 246 0.0 0.0 0.00 0.00 0.00 71 1018.9
20260503024004 43 246 0.0 0.0 0.00 0.00 0.00 69 1018.9
20260503023002 43 246 0.0 0.0 0.00 0.00 0.00 67 1018.8
20260503022504 43 246 0.0 0.0 0.00 0.00 0.00 66 1018.7
20260503022000 43 246 0.0 0.0 0.00 0.00 0.00 67 1018.8
20260503021504 43 246 0.0 0.0 0.00 0.00 0.00 70 1018.6
20260503021004 44 246 0.0 0.0 0.00 0.00 0.00 67 1018.7
20260503020504 44 246 0.0 0.0 0.00 0.00 0.00 65 1018.6
20260503020000 44 246 0.0 0.0 0.00 0.00 0.00 64 1018.5
20260503015003 44 246 0.0 0.0 0.00 0.00 0.00 64 1018.4
20260503013503 45 246 0.0 0.9 0.00 0.00 0.00 62 1018.3
20260503013002 45 246 0.0 0.0 0.00 0.00 0.00 61 1018.2